Zakynthos, Greece

4:14 PM EET on December 17, 2017 (GMT +0200)
Dionysios Solomos

Weather History for LGZA - June, 2013

Change the Weather History Date:

Sunday, June 23, 2013

  Actual Average Record
Temperature  
Mean Temperature 81 °F -  
Max Temperature 93 °F 86 °F 98 °F (2012)
Min Temperature 69 °F 68 °F 57 °F (2014)
Cooling Degree Days 16    
Growing Degree Days 31 (Base 50)    
Moisture  
Dew Point 67 °F    
Average Humidity 56    
Maximum Humidity 83    
Minimum Humidity 41    
Precipitation  
Precipitation 0.00 in 0.01 in - ()
Sea Level Pressure  
Sea Level Pressure 29.84 in    
Wind  
Wind Speed 3 mph ()    
Max Wind Speed 7 mph    
Max Gust Speed -    
Visibility 6.2 miles    
Events      
Averages and records for this station are not official NWS values.
T = Trace of Precipitation, MM = Missing Value Source: Averaged Metar Reports

Daily Weather History Graph

Daily Weather History Graph

Search for Another Location

Airport or City:

Trip Planner

Search our weather history database for the weather conditions in past years. The results will help you decide how hot, cold, wet, or windy it might be!

Date:

Astronomy

Jun. 23, 2013 Rise Set
Actual Time 6:15 AM EEST 9:02 PM EEST
Civil Twilight 5:44 AM EEST 9:33 PM EEST
Nautical Twilight 5:04 AM EEST 10:12 PM EEST
Astronomical Twilight 4:20 AM EEST 10:57 PM EEST
Moon 8:58 PM EEST (6/23) 6:11 AM EEST (6/23)
Length of Visible Light 15h 49m
Length of Day
14h 46m
Full, 100% of the Moon is Illuminated
Jun 23
Full
Jun 23
Full
Jun 30
Last Quarter
Jul 8
New
Jul 16
First Quarter

Hourly Weather History & Observations

Time (EEST) Temp. Heat Index Dew Point Humidity Pressure Visibility Wind Dir Wind Speed Gust Speed Precip Events Conditions
5:50 AM 69.8 °F - 64.4 °F 83% 29.86 in 6.2 mi Calm Calm - N/A   Partly Cloudy
6:20 AM 69.8 °F - 64.4 °F 83% 29.86 in 6.2 mi Calm Calm - N/A   Partly Cloudy
6:50 AM 69.8 °F - 62.6 °F 78% 29.86 in 6.2 mi Calm Calm - N/A   Partly Cloudy
7:20 AM 71.6 °F - 62.6 °F 73% 29.86 in - West 3.5 mph - N/A   Clear
7:50 AM 75.2 °F - 64.4 °F 69% 29.86 in - West 3.5 mph - N/A   Clear
8:20 AM 78.8 °F - 66.2 °F 65% 29.86 in - Calm Calm - N/A   Clear
8:50 AM 82.4 °F 84.6 °F 66.2 °F 58% 29.86 in - North 4.6 mph - N/A   Clear
9:20 AM 84.2 °F 87.3 °F 68.0 °F 58% 29.86 in - North 4.6 mph - N/A   Clear
9:50 AM 86.0 °F 87.3 °F 64.4 °F 48% 29.86 in - North 4.6 mph - N/A   Clear
10:20 AM 86.0 °F 87.3 °F 64.4 °F 48% 29.86 in - North 4.6 mph - N/A   Clear
10:50 AM 86.0 °F 88.2 °F 66.2 °F 51% 29.86 in - North 6.9 mph - N/A   Clear
11:20 AM 87.8 °F 90.4 °F 66.2 °F 49% 29.86 in - North 6.9 mph - N/A   Clear
11:50 AM 87.8 °F 90.4 °F 66.2 °F 49% 29.86 in - North 6.9 mph - N/A   Clear
12:20 PM 87.8 °F 90.4 °F 66.2 °F 49% 29.86 in - North 6.9 mph - N/A   Clear
12:50 PM 89.6 °F 92.2 °F 66.2 °F 46% 29.86 in - North 4.6 mph - N/A   Clear
1:20 PM 91.4 °F 94.0 °F 66.2 °F 43% 29.86 in - North 4.6 mph - N/A   Clear
1:50 PM 93.2 °F 96.2 °F 66.2 °F 41% 29.86 in - ENE 4.6 mph - N/A   Clear
2:20 PM 93.2 °F 96.2 °F 66.2 °F 41% 29.86 in - SE 6.9 mph - N/A   Clear
2:50 PM 89.6 °F 94.7 °F 69.8 °F 52% 29.86 in - SE 6.9 mph - N/A   Clear
3:20 PM 89.6 °F 94.7 °F 69.8 °F 52% 29.86 in - SE 6.9 mph - N/A   Clear
3:50 PM 89.6 °F 94.7 °F 69.8 °F 52% 29.83 in - SE 5.8 mph - N/A   Clear
4:20 PM 89.6 °F 94.7 °F 69.8 °F 52% 29.83 in - SE 5.8 mph - N/A   Clear
4:50 PM 89.6 °F 93.4 °F 68.0 °F 49% 29.83 in - NNE 4.6 mph - N/A   Clear
5:20 PM 89.6 °F 93.4 °F 68.0 °F 49% 29.83 in - NNE 4.6 mph - N/A   Clear
5:50 PM 89.6 °F 94.7 °F 69.8 °F 52% 29.80 in - NE 4.6 mph - N/A   Clear
6:50 PM 89.6 °F 94.7 °F 69.8 °F 52% 29.80 in - NE 4.6 mph - N/A   Clear
7:20 PM 86.0 °F 89.4 °F 68.0 °F 55% 29.80 in - SE 4.6 mph - N/A   Clear
7:50 PM 86.0 °F 90.4 °F 69.8 °F 58% 29.80 in - ESE 5.8 mph - N/A   Clear
8:20 PM 84.2 °F 88.4 °F 69.8 °F 62% 29.80 in - ESE 5.8 mph - N/A   Clear
8:50 PM 84.2 °F 88.4 °F 69.8 °F 62% 29.80 in - Calm Calm - N/A   Clear
9:20 PM 84.2 °F 88.4 °F 69.8 °F 62% 29.80 in - Calm Calm - N/A   Clear
9:50 PM 82.4 °F 86.3 °F 69.8 °F 66% 29.80 in - Calm Calm - N/A   Clear